Regional Weather Roundup
Issued by NWS

Home | Current Version | Previous Version | Text Only | Print | Product List | Glossary Off
Versions: 1 2 3 4 5 6 7 8 9 10 11 12 13 14 15 16 17 18 19 20 21 22 23 24 25 26 27 28 29 30 31 32 33 34 35 36 37 38 39 40 41 42 43 44 45 46 47 48 49 50

000
ASUS43 KDMX 251006
RWRIA

WEATHER ROUNDUP FOR IOWA
NATIONAL WEATHER SERVICE DES MOINES IA
500 AM CDT TUE APR 25 2017

NOTE: "FAIR" INDICATES FEW OR NO CLOUDS BELOW 12,000 FEET WITH NO
SIGNIFICANT WEATHER AND/OR OBSTRUCTIONS TO VISIBILITY.

* - THESE STATIONS ARE NOT NWS STATIONS...THUS NOT UNDER NWS
QUALITY CONTROL.  THEY ALSO DO NOT REPORT WEATHER SUCH
AS PRECIPITATION OR FOG.

IAZ001>003-012>014-020>022-031>034-043>046-251100-
   NORTHWEST IOWA

CITY           SKY/WX    TMP DP  RH WIND       PRES   REMARKS
CARROLL *      MOCLDY    52  43  71 CALM      29.49F
CHEROKEE *     CLOUDY    45  42  90 N13       29.52S
DENISON *      MOCLDY    46  43  87 CALM      29.51F
LE MARS *      CLOUDY    45  41  87 NW9       29.56R
ORANGE CITY *  CLOUDY    45  43  93 NW9       29.54S
SHELDON *      CLOUDY    45  43  93 N12G18    29.53S
SIOUX CITY     CLOUDY    44  39  82 N17       29.53F
SPENCER        CLOUDY    44  40  85 N15       29.52S
STORM LAKE *   MOCLDY    46  43  87 NW9       29.51R
$$

IAZ055>058-069>071-079>083-090>094-251100-
   SOUTHWEST IOWA

CITY           SKY/WX    TMP DP  RH WIND       PRES   REMARKS
ATLANTIC *     CLOUDY    55  45  67 CALM      29.49S
AUDUBON *      PTCLDY    50  45  81 CALM      29.50F
CLARINDA *       N/A     54  45  71 S6        29.53R
COUNCIL BLFS * CLOUDY    52  46  82 N9        29.51R
CRESTON *      CLOUDY    57  43  58 S9        29.52S
HARLAN  *      MOCLDY    52  45  76 N7        29.51F
LAMONI         MOCLDY    55  38  52 S8        29.53S
RED OAK *      CLOUDY    54  45  71 S6        29.50R
SHENANDOAH *   MOCLDY    59  46  63 S13       29.51R
$$

IAZ047>049-059>061-072>074-084-251100-
   CENTRAL IOWA

CITY           SKY/WX    TMP DP  RH WIND       PRES   REMARKS
AMES           CLEAR     52  40  63 SE6       29.51S
ANKENY *       CLEAR     54  37  54 S5        29.53S
BOONE *        PTCLDY    52  37  58 SE3       29.50S
CHARITON *     PTCLDY    52  39  62 SE8       29.54R
DES MOINES     PTCLDY    57  39  51 SE8       29.52F
GRINNELL*      PTCLDY    53  36  51 SE10      29.56S
KNOXVILLE *    CLOUDY    55  36  47 SE7       29.53S
MARSHALLTOWN   PTCLDY    54  36  50 SE10      29.53S
PELLA *        CLEAR     54  36  50 SE7       29.55F
$$

IAZ004>006-015-016-023>025-035-036-251100-
   NORTH CENTRAL IOWA

CITY           SKY/WX    TMP DP  RH WIND       PRES   REMARKS
ALGONA *       MOCLDY    55  41  58 S7        29.50S
CLARION *      CLEAR     52  37  58 S7        29.51S
ESTHERVILLE    CLOUDY    43  43 100 NW14      29.51S
FORT DODGE *   CLEAR     55  37  50 SE5       29.51F
MASON CITY     CLEAR     49  36  61 S6        29.53S
FOREST CITY *  MOCLDY    50  37  62 SE7       29.51S
WEBSTER CITY * PTCLDY    50  37  62 SW6       29.50R
$$

IAZ007>011-017>019-026>030-037>042-050>054-066-251100-
   NORTHEAST IOWA

CITY           SKY/WX    TMP DP  RH WIND       PRES   REMARKS
CEDAR RAPIDS   CLEAR     54  37  52 S9        29.57S
CHARLES CITY * CLOUDY    57  34  41 SE10      29.55S
CLINTON *      CLOUDY    53  36  52 SE12      29.63F
DECORAH *      CLOUDY    54  34  47 SE8       29.56S
DUBUQUE        CLEAR     53  33  46 SE14      29.61F
MONTICELLO *   CLEAR     52  34  50 SE6       29.59S
OELWEIN *      CLOUDY    52  37  58 SE8       29.57S
WATERLOO       CLOUDY    57  35  43 S8        29.55R
$$

IAZ064-065-067-068-078-251100-
   EAST CENTRAL IOWA

CITY           SKY/WX    TMP DP  RH WIND       PRES   REMARKS
DAVENPORT        N/A     55  34  45 S12       29.62F
IOWA CITY      CLEAR     54  36  50 CALM      29.60S
MT. PLEASANT * MOCLDY    55  38  52 S9        29.60S
MUSCATINE *    CLOUDY    46  37  71 CALM      29.61S
QUAD CITIES    PTCLDY    54  34  46 S10       29.62S
$$

IAZ062-063-075>077-085>089-095>099-251100-
   SOUTHEAST IOWA

CITY           SKY/WX    TMP DP  RH WIND       PRES   REMARKS
BURLINGTON     CLOUDY    59  41  51 S13       29.61S
FAIRFIELD *    CLOUDY    55  37  50 S9        29.57F
FORT MADISON * CLOUDY    57  41  54 S12       29.61F
KEOKUK *       MOCLDY    61  39  44 S12G18    29.60S
OSKALOOSA *      N/A     51  37  57 SE9       29.56F
CENTERVILLE *    N/A     52  37  58 CALM      29.57S
OTTUMWA        CLOUDY    56  36  47 S13       29.55F
WASHINGTON *   CLEAR     54  37  54 S8        29.59F
$$

ABBREVIATIONS USED IN REMARKS
   TC - TEMPERATURES IN CELSIUS
  WCI - WIND CHILL INDEX
   HX - HEAT INDEX
  VSB - VISIBILITY
$$




USA.gov is the U.S. government's official web portal to all federal, state and local government web resources and services.